Theta_e
326 326 326 326 325 325 325 326 326 326 326 325 325 325 325 325 324 324 324 324 323 323 322 322 321 320 319 320 320 320 319 319 319 319 318 318 316 315 314 315 316 317 317 317 317 316 316 316 316 316 315 315 315 315 316 316 315 315 315 315 315 315 315 314 314 314 314 314 315
325 325 325 325 325 325 325 325 325 325 325 325 325 325 325 325 325 324 324 324 324 323 323 322 321 320 319 318 318 318 318 318 317 317 317 316 315 315 314 314 316 317 317 318 317 316 316 315 315 315 315 315 314 314 314 315 315 314 314 314 314 314 314 314 313 314 314 314 315
325 325 325 325 325 325 325 325 325 325 325 325 325 324 324 324 324 324 324 324 324 324 323 322 321 320 319 317 317 317 317 318 317 317 316 315 315 315 314 314 314 315 316 316 316 315 314 314 314 314 313 313 313 313 313 313 313 313 313 313 313 313 313 313 313 314 314 314 314
324 324 325 325 324 324 324 324 324 325 325 324 324 323 323 323 323 324 324 324 324 323 322 322 321 319 318 317 317 317 317 317 317 316 315 314 313 312 312 313 313 314 314 315 314 313 313 313 312 312 312 313 313 313 312 312 312 312 311 311 311 311 311 311 311 311 311 312 312
324 324 324 324 324 324 324 324 324 324 325 324 323 323 322 322 322 322 323 323 322 323 323 323 321 320 319 317 316 316 316 315 315 315 314 312 312 312 311 311 312 312 312 312 312 312 311 311 311 311 311 312 312 311 311 311 310 310 310 309 309 309 309 309 309 309 309 309 310
322 323 324 324 324 324 324 324 324 323 323 323 323 322 322 322 322 322 322 321 322 323 323 322 321 320 319 317 316 315 315 315 315 314 313 312 312 310 310 310 310 310 310 310 310 310 309 309 309 310 311 311 311 311 311 310 309 309 308 308 308 307 307 307 307 307 307 307 308
319 320 321 321 322 322 323 323 323 323 323 322 322 322 322 322 322 322 321 321 321 321 320 320 320 319 318 317 316 315 315 314 314 314 314 313 311 310 309 309 309 309 308 308 308 308 308 308 309 309 310 310 309 309 309 309 308 308 307 307 307 306 306 306 306 305 305 305 306
314 315 316 317 319 320 321 322 322 322 322 321 321 322 322 323 322 322 322 321 320 320 319 318 319 318 318 316 316 315 314 314 314 314 314 313 311 310 309 308 307 307 306 306 306 306 307 307 308 308 308 308 307 307 306 306 306 305 305 305 305 305 305 305 305 305 304 304 304
310 311 312 313 315 317 318 320 321 321 321 321 321 322 322 322 322 322 321 321 320 319 318 317 317 317 316 316 315 315 315 315 314 313 312 312 311 310 308 307 306 305 305 305 305 306 306 306 306 306 306 306 305 305 304 303 303 303 303 304 303 303 303 304 304 304 303 303 303
307 308 309 310 312 313 314 316 317 319 320 321 321 321 321 321 321 321 321 321 320 318 316 316 316 315 315 315 315 314 314 314 313 311 310 310 309 308 307 306 305 304 304 304 304 304 304 304 304 304 304 304 304 303 302 301 301 301 301 301 302 302 302 302 302 303 303 303 303
306 306 307 308 308 309 311 311 313 314 316 318 319 320 320 319 319 320 320 319 318 317 316 314 314 314 314 313 313 313 312 311 310 309 307 307 307 306 305 305 304 304 303 303 303 303 303 303 302 302 302 302 302 301 300 299 299 299 299 299 300 300 300 299 300 300 302 302 302
306 305 305 305 306 307 308 309 310 311 312 313 314 315 316 316 316 316 316 316 316 315 315 314 313 312 312 312 312 312 310 309 308 307 306 305 305 305 304 304 304 303 302 301 302 302 302 302 301 300 299 299 299 299 299 298 298 298 298 297 297 298 297 296 297 298 300 300 301
305 305 304 304 305 306 306 307 308 308 309 310 310 311 311 312 312 312 313 313 313 313 312 312 312 312 312 312 311 310 308 308 307 306 306 304 304 303 303 303 303 302 301 301 301 301 301 301 300 299 298 298 298 298 298 298 298 298 298 297 298 297 297 296 296 297 298 299 300
302 303 304 304 304 305 305 306 307 307 308 308 308 308 308 308 308 308 310 310 311 310 309 309 310 310 311 310 309 309 308 307 306 306 305 304 303 302 302 302 301 301 301 300 300 300 300 300 300 299 299 298 298 298 298 298 299 299 299 299 299 299 298 298 296 296 297 298 299
301 301 302 303 304 305 305 305 305 306 306 306 307 307 306 307 306 307 308 308 308 308 308 308 308 308 308 307 307 307 307 306 306 306 305 303 303 302 302 301 301 300 300 299 299 299 300 300 300 300 300 299 298 298 297 298 300 300 300 300 300 300 299 298 297 296 297 298 298
300 300 300 301 303 304 304 305 305 305 305 305 305 305 305 305 305 306 306 307 307 306 306 306 306 305 305 305 305 306 306 306 305 305 304 303 303 302 302 301 301 300 300 299 298 299 299 299 300 301 301 300 299 298 298 299 300 300 300 300 300 300 299 298 297 297 297 298 298
299 299 299 300 301 302 303 304 305 305 305 305 304 303 303 303 304 305 305 305 305 305 305 305 304 304 304 304 304 305 305 305 305 305 304 303 302 302 301 301 301 301 300 299 299 299 299 300 300 301 301 301 300 299 299 299 299 300 300 300 300 300 299 299 299 299 298 298 299
299 299 298 299 300 301 302 303 303 304 304 304 304 303 303 303 303 304 304 304 304 304 304 303 302 303 302 302 303 303 304 304 304 304 303 303 302 302 301 301 301 301 300 300 300 300 300 300 300 301 301 301 300 300 300 300 300 300 300 300 300 300 300 300 300 299 299 299 299
299 298 299 299 300 300 301 302 302 303 303 303 303 302 302 302 302 303 303 303 303 303 303 301 301 301 301 301 301 302 303 302 302 302 302 302 301 301 301 300 300 300 300 301 301 301 301 301 300 300 300 300 299 299 299 299 299 299 299 299 299 300 300 300 299 299 299 299 299
298 299 299 299 299 300 301 301 302 301 301 301 301 301 300 301 301 302 302 302 302 302 302 301 300 300 299 299 300 300 301 302 301 301 301 301 301 301 300 300 300 300 300 301 301 301 301 301 300 300 300 299 299 299 299 299 299 299 299 299 299 299 299 299 299 299 299 299 299
298 298 299 299 299 300 300 301 301 300 300 299 299 299 299 300 300 301 301 302 301 301 301 301 300 300 299 299 299 299 300 300 300 300 300 301 300 300 300 300 300 300 300 301 301 301 300 300 299 299 299 298 298 298 298 299 299 298 298 298 298 298 299 299 299 299 299 299 299
298 298 298 298 299 299 300 300 299 299 299 298 298 298 298 298 299 299 299 300 299 299 300 301 300 300 300 299 299 299 299 299 300 300 300 300 300 300 300 300 300 300 300 300 301 300 300 299 298 298 298 298 298 298 298 298 298 298 298 298 298 298 298 298 298 298 298 298 298
297 297 297 298 297 298 298 299 298 298 298 299 298 298 298 298 298 298 297 297 298 299 300 300 300 300 299 299 299 299 298 298 298 298 298 298 299 299 299 300 300 300 300 300 300 299 299 298 298 298 298 298 297 297 297 298 298 297 297 297 297 297 297 297 297 297 297 297 297
296 296 297 296 296 297 297 297 297 297 298 298 298 298 297 298 298 297 296 295 297 298 299 299 299 298 298 298 298 298 298 298 297 296 296 296 297 298 298 299 299 299 299 299 299 299 298 298 298 297 297 297 297 297 297 296 297 296 296 296 296 296 297 297 297 297 296 296 296
296 296 295 296 295 295 295 296 296 297 297 298 297 297 297 297 297 297 296 295 297 298 298 298 297 297 297 297 297 297 298 298 297 297 296 296 296 297 297 298 299 299 299 299 299 299 299 299 298 297 297 297 297 296 296 296 296 296 296 296 296 296 296 296 296 296 296 295 296
295 295 295 295 295 295 295 295 296 296 297 297 296 296 297 297 297 297 296 296 297 297 297 296 296 296 297 297 296 297 297 298 298 297 297 296 296 297 297 298 298 298 298 299 300 300 300 300 299 298 298 297 297 297 297 296 296 296 296 296 296 296 296 296 296 296 295 295 295
295 295 295 294 294 294 294 295 295 295 296 296 296 296 296 296 297 296 296 297 297 297 296 296 296 297 297 297 296 296 297 298 298 298 297 297 297 297 297 297 298 298 298 299 300 301 301 301 301 301 300 299 298 298 297 297 296 296 296 296 296 296 296 295 295 295 295 295 294
296 295 295 294 294 294 294 294 294 294 295 295 296 296 296 296 296 296 296 297 297 296 296 296 297 298 298 297 297 297 297 297 297 297 297 298 297 297 297 297 298 298 298 299 300 301 302 302 302 302 301 300 299 298 297 297 296 296 296 297 296 296 296 295 295 295 295 294 293
296 295 294 294 294 294 294 293 294 294 295 295 295 295 295 295 295 295 296 297 297 297 297 297 297 298 298 297 297 296 297 297 297 297 298 298 298 297 297 297 297 298 299 300 301 301 301 302 301 302 301 301 300 298 297 297 297 297 297 296 296 296 295 295 295 295 295 294 293
296 295 294 294 294 294 294 294 294 294 294 294 294 293 294 295 295 296 296 296 297 297 298 298 298 298 297 297 296 296 297 297 297 297 297 297 298 298 297 297 297 297 299 300 301 301 301 301 300 300 300 300 299 298 297 297 297 297 297 296 296 296 295 295 294 294 294 293 293
295 295 294 294 294 294 294 294 294 293 293 293 293 293 294 296 296 296 296 296 297 298 299 299 298 297 297 297 297 297 297 297 297 297 297 297 297 297 297 297 296 296 297 300 300 300 300 300 299 299 299 299 299 298 297 296 297 296 296 296 296 295 295 294 294 294 294 293 293
295 294 294 294 294 294 294 294 293 293 292 292 293 294 294 295 296 296 297 297 297 298 298 298 297 297 297 297 297 297 297 296 296 296 296 297 297 297 296 296 294 294 295 298 299 299 299 299 299 298 298 298 298 297 295 296 296 296 296 296 296 295 295 294 294 293 293 293 293
295 295 294 294 294 294 294 293 292 292 291 292 292 293 294 295 296 296 297 297 297 297 297 297 297 296 296 296 296 296 296 296 296 296 296 296 296 295 294 294 293 293 294 296 297 298 298 298 298 298 298 298 298 296 294 294 295 295 296 296 295 295 294 294 293 293 292 292 293
295 295 295 294 294 294 294 293 292 291 291 291 292 292 293 295 295 296 296 297 297 297 297 297 296 296 296 296 296 296 296 296 295 295 295 295 294 294 293 292 292 292 294 295 296 297 297 298 298 298 297 297 297 295 295 295 295 294 294 295 294 294 294 293 292 292 292 292 292
295 295 295 295 295 294 294 293 292 291 291 291 292 292 293 294 295 296 296 296 296 296 296 296 296 296 296 296 296 296 295 295 295 294 293 293 293 293 292 292 292 292 294 295 295 296 297 297 297 297 297 297 295 295 295 296 295 294 293 294 293 292 291 291 291 291 291 291 292
295 294 294 294 294 294 293 293 292 291 291 291 292 292 293 294 295 295 296 296 296 295 295 295 295 295 294 294 294 294 295 294 294 293 293 292 292 292 292 292 291 292 293 294 295 296 296 297 297 297 297 297 295 295 295 295 294 293 292 292 292 290 290 290 290 289 290 290 291
294 294 294 294 294 294 294 293 292 291 291 292 292 293 293 294 294 295 295 296 295 294 294 294 294 294 293 293 293 293 293 293 293 292 292 292 292 291 291 291 291 291 292 294 294 295 296 296 297 297 297 296 295 294 294 293 292 292 291 291 291 290 289 289 288 288 288 289 290
293 293 293 293 294 294 294 293 293 292 292 292 292 293 293 294 294 294 295 295 294 294 293 293 293 293 293 293 292 292 292 292 292 292 291 291 291 291 290 291 290 290 291 293 294 294 295 296 296 297 297 296 295 294 293 292 291 291 291 291 290 288 287 287 287 287 288 288 290
293 293 293 293 293 293 293 293 293 293 293 293 293 293 293 293 294 294 294 295 294 294 293 293 293 293 293 293 292 291 290 291 291 291 290 290 291 291 290 290 289 289 290 291 293 294 294 296 296 297 297 296 294 293 292 291 291 291 290 290 289 287 286 285 286 286 287 288 290
293 293 293 293 293 293 293 294 294 293 293 293 292 292 292 293 293 294 294 294 294 294 293 293 293 293 293 292 292 291 290 289 290 290 290 290 291 291 291 290 290 289 290 291 292 293 294 295 296 297 297 295 293 292 292 291 290 290 290 289 288 287 285 285 285 286 287 287 290
292 292 292 293 293 293 293 294 294 294 293 293 292 292 292 293 294 294 294 294 293 293 293 293 293 293 292 292 291 290 289 289 289 289 289 290 291 291 291 291 290 289 289 290 291 293 294 295 296 297 297 294 292 291 291 291 290 290 289 289 288 287 286 285 284 285 286 287 289
Wind_Speed
6 5 5 5 4 4 3 3 4 4 4 4 5 4 4 4 4 4 4 4 4 4 4 4 4 5 6 8 8 7 6 5 5 5 6 6 6 7 7 6 6 6 6 6 6 6 5 5 4 3 2 2 2 3 3 3 3 3 3 3 3 3 3 4 4 4 5 5 4
7 6 6 5 4 4 4 4 4 4 4 4 4 4 4 4 4 4 4 4 4 4 4 3 3 4 6 7 7 8 7 6 6 6 6 6 6 7 7 6 6 6 7 7 6 5 4 4 3 3 3 3 3 3 3 3 3 3 3 4 3 3 3 4 4 4 5 5 4
7 6 6 6 5 5 5 4 5 6 6 5 5 5 4 4 4 4 5 5 5 4 4 3 4 5 6 7 7 7 8 8 7 7 6 6 6 6 6 6 7 7 7 7 6 5 4 4 3 3 3 3 4 3 3 2 2 2 3 3 3 2 3 3 3 3 3 3 3
7 7 7 7 8 8 7 5 6 7 6 5 5 5 5 5 4 4 4 5 5 5 5 5 5 6 7 7 7 8 8 9 9 9 8 7 7 7 7 7 7 7 7 7 6 5 4 4 3 3 3 4 4 3 3 2 1 1 1 2 2 2 2 2 2 2 2 2 2
8 8 7 7 8 9 8 7 7 7 6 5 5 4 4 4 4 4 4 4 4 5 5 5 5 6 7 8 9 9 9 10 10 10 9 8 8 7 7 7 7 7 7 6 6 6 5 5 3 3 3 3 3 2 2 2 2 1 1 1 1 1 1 1 1 1 1 2 2
7 8 8 8 8 8 8 7 7 7 6 5 5 5 5 4 4 4 4 4 4 4 4 4 4 5 6 8 10 10 11 11 11 10 10 10 9 8 8 8 8 8 7 6 7 6 6 5 3 3 3 2 2 2 2 2 2 2 2 2 1 1 1 1 1 1 1 2 2
6 7 7 7 7 7 7 7 6 6 5 5 6 7 6 5 5 6 6 5 4 3 3 3 3 4 5 6 8 9 10 11 11 11 12 11 11 11 11 11 10 9 8 8 7 7 6 5 4 3 3 3 2 2 3 3 3 3 3 2 2 1 1 2 1 1 1 2 2
5 5 5 6 6 7 7 7 6 6 5 5 6 7 7 7 7 7 6 5 4 3 3 2 3 3 4 5 6 6 8 10 10 11 11 10 11 11 11 10 10 9 8 8 7 7 6 5 4 4 4 4 3 3 3 3 3 3 4 4 2 2 1 1 1 1 1 2 2
3 4 4 5 5 6 7 7 7 7 7 7 8 8 7 7 7 7 6 5 4 3 3 3 3 4 4 5 5 5 5 6 7 8 8 8 9 9 8 7 7 7 7 6 6 6 5 4 3 4 4 4 4 4 4 4 4 4 4 4 3 3 2 2 2 2 2 2 2
4 4 4 4 5 6 6 7 7 7 8 9 9 8 7 6 6 6 6 5 4 4 4 4 5 5 5 6 5 5 4 3 3 4 4 4 6 7 7 6 6 6 6 5 4 4 4 3 3 3 4 4 5 5 5 5 5 5 5 3 3 3 3 2 2 2 2 2 2
3 4 4 4 5 5 5 6 6 7 7 8 9 9 8 7 7 6 6 4 4 5 5 5 6 6 7 7 6 5 4 3 2 2 2 2 3 4 5 6 7 6 6 5 4 4 3 2 3 4 4 4 5 6 6 6 6 5 5 3 3 3 3 2 2 2 2 2 2
3 3 3 4 4 5 5 5 5 6 7 8 8 8 8 8 7 7 6 5 6 6 6 6 6 7 7 6 6 6 6 5 5 5 5 4 4 4 5 5 6 6 6 6 5 4 3 3 3 4 5 5 5 5 6 7 6 6 5 3 3 2 2 2 2 2 2 2 2
4 3 3 3 3 4 4 5 5 5 6 7 7 7 7 6 6 6 6 6 7 6 5 5 6 6 6 6 6 6 6 7 7 7 7 7 7 6 6 6 6 7 6 6 5 5 4 4 5 5 6 6 5 5 6 7 6 6 5 4 3 3 2 2 2 2 2 2 2
4 4 4 3 3 3 3 4 4 4 5 6 6 6 5 5 4 5 5 6 6 5 4 4 4 5 5 6 6 6 7 7 8 8 8 8 8 7 7 7 7 7 6 6 6 5 5 5 6 6 7 7 6 6 6 6 6 6 6 5 4 3 3 2 2 2 2 2 2
4 4 4 3 3 3 4 4 4 4 4 5 5 4 4 3 3 4 5 5 5 5 4 4 4 4 5 5 6 7 7 7 8 8 8 8 7 7 7 6 6 6 6 5 5 6 6 6 7 7 8 8 7 6 6 5 6 6 6 5 5 4 3 3 3 2 2 2 2
4 4 4 4 4 4 4 4 4 4 4 5 5 4 3 3 3 3 4 5 4 4 5 5 5 4 4 5 6 6 7 7 7 7 7 7 6 6 6 6 6 6 6 6 5 6 6 6 7 7 8 8 7 6 6 5 6 6 6 5 5 4 3 3 3 3 3 3 3
5 4 4 3 4 5 5 5 4 4 5 5 5 4 3 3 2 3 4 4 4 5 5 6 5 5 5 5 5 6 6 6 6 6 6 6 6 6 6 6 6 6 6 6 6 6 6 7 6 7 7 7 7 6 6 5 5 5 5 5 4 4 4 4 3 3 3 3 4
6 5 4 4 5 6 6 6 6 5 5 5 5 4 3 3 3 3 3 4 5 5 6 6 5 5 5 5 5 5 5 6 6 6 6 6 6 6 6 6 6 6 6 6 7 7 7 7 7 6 6 6 6 5 5 5 5 5 5 5 4 4 4 4 4 4 4 4 5
7 6 6 5 6 6 7 7 7 6 6 5 4 4 3 3 3 3 3 4 4 5 6 6 5 4 5 5 5 5 5 5 6 6 6 6 6 6 6 6 6 6 7 7 7 7 7 7 7 7 6 6 5 5 5 4 4 4 4 4 5 4 4 4 4 4 4 5 5
8 7 7 7 7 7 7 7 7 6 5 4 4 4 4 4 4 4 4 5 5 5 5 5 5 4 4 5 5 5 4 4 5 6 6 6 6 6 7 7 7 7 7 7 7 7 7 7 7 7 7 6 6 5 5 4 4 4 4 4 4 5 5 5 5 5 6 6 6
8 8 8 7 7 7 7 7 6 6 5 4 4 4 4 4 5 5 5 5 4 4 5 5 5 5 5 5 5 5 4 4 5 5 6 6 7 7 7 7 7 7 7 7 8 8 8 7 7 7 7 6 6 5 5 4 4 5 4 4 4 4 5 5 6 6 6 6 7
8 8 8 8 7 7 7 7 6 5 5 5 4 4 5 5 5 5 5 4 4 4 5 5 5 6 6 6 6 5 4 4 4 5 5 6 6 7 7 7 8 8 8 8 8 8 8 8 7 7 6 6 6 6 5 5 5 5 4 4 4 4 5 5 5 6 6 7 7
9 9 8 7 7 7 7 6 5 5 5 5 5 5 5 5 5 5 4 3 4 5 5 5 5 5 6 6 6 5 5 4 4 4 4 5 6 6 6 7 7 8 8 7 8 8 8 7 7 7 6 6 6 6 6 5 5 4 4 4 4 4 4 5 5 6 6 7 6
10 9 8 7 7 7 6 6 5 6 6 6 5 5 5 5 5 5 4 4 5 6 5 5 4 5 5 5 5 6 6 6 5 5 4 5 5 6 6 6 7 7 7 6 7 8 7 6 6 6 6 6 6 5 5 5 5 4 4 4 4 4 5 5 6 6 6 6 6
9 9 8 7 7 6 6 6 6 7 7 6 6 5 5 5 5 5 5 5 6 6 6 5 5 4 4 5 5 5 6 6 6 6 6 5 5 6 6 6 6 6 6 6 9 10 10 8 6 6 5 5 5 5 5 5 5 5 4 4 4 5 5 6 6 6 6 6 6
9 9 9 8 7 7 7 7 7 7 7 6 5 5 6 6 6 6 6 6 6 6 6 5 5 5 5 5 5 5 5 6 6 7 7 7 7 7 6 6 6 5 5 7 10 12 12 11 9 8 6 5 5 5 5 5 5 5 5 5 5 5 6 6 6 6 6 6 6
9 9 9 8 7 7 7 7 7 7 7 6 6 6 6 6 6 6 7 7 7 6 5 5 5 6 6 5 6 6 6 6 6 7 7 8 8 8 8 7 6 5 6 9 12 13 13 13 12 11 9 6 6 6 6 5 6 6 6 6 5 6 6 6 6 6 6 6 5
9 9 9 8 8 8 7 7 7 7 7 7 7 7 6 6 7 7 7 7 7 6 5 5 5 5 4 4 6 7 7 7 7 7 7 8 9 9 9 8 7 7 8 11 13 14 14 14 13 12 11 8 6 6 6 5 5 6 5 5 5 6 6 6 5 5 5 5 5
10 9 9 9 9 8 7 7 7 8 8 8 7 6 6 7 7 8 8 8 7 7 6 5 4 4 4 5 6 7 7 8 7 7 8 9 9 10 9 9 8 9 10 14 14 14 14 13 13 12 12 10 6 5 4 5 5 5 5 5 5 6 6 6 5 5 5 5 5
9 9 9 9 9 9 8 7 8 8 7 6 6 6 6 7 8 9 9 9 9 9 7 6 5 6 6 7 7 7 7 8 7 8 8 9 10 10 10 10 9 9 11 15 15 14 14 13 12 12 12 11 8 5 4 4 5 5 5 5 6 6 6 6 6 5 5 5 5
9 9 9 9 9 9 8 8 7 7 6 6 6 6 8 9 10 10 11 10 10 9 8 7 8 8 9 8 8 8 8 8 8 8 9 10 11 11 11 10 9 9 11 14 14 14 13 13 12 12 12 12 9 6 4 4 5 4 4 5 6 7 6 6 6 6 6 6 5
9 9 9 10 10 10 9 8 7 6 6 6 7 8 9 10 11 11 11 10 10 9 9 9 9 10 10 9 9 9 9 9 9 9 10 10 10 10 10 9 9 9 10 13 13 13 13 13 12 12 12 12 10 7 5 5 5 5 5 6 7 7 7 6 5 6 6 6 6
10 10 10 10 11 10 9 8 7 6 6 7 8 9 10 11 11 10 10 10 9 10 10 10 11 11 11 11 10 10 10 10 10 10 10 10 10 9 9 8 7 8 10 12 13 13 13 13 13 12 12 13 9 6 5 5 4 4 5 5 6 6 7 7 6 6 6 7 6
10 10 11 11 11 11 10 8 7 6 6 7 8 9 10 10 11 11 11 10 9 10 10 11 11 11 11 11 11 11 11 10 10 10 10 10 9 9 9 8 6 8 10 12 13 14 14 14 13 13 12 12 8 5 5 5 4 4 5 5 5 6 6 6 6 6 6 7 6
10 11 12 12 12 11 10 9 7 7 7 8 9 10 10 11 11 11 11 10 10 9 9 10 10 9 9 9 9 10 11 11 10 10 10 10 9 9 9 9 7 8 11 12 13 14 14 14 13 13 12 11 6 5 5 6 5 5 5 6 6 6 6 6 6 6 6 6 6
10 11 12 13 13 12 11 10 8 8 8 9 10 10 11 11 11 11 10 10 9 9 9 9 9 8 8 8 8 9 10 11 11 11 10 10 10 10 10 10 9 10 11 13 13 14 14 14 13 13 12 9 5 4 5 5 5 5 6 6 6 6 5 5 5 5 5 5 6
10 11 12 13 13 13 12 10 9 9 10 10 11 11 11 11 11 10 10 9 9 10 10 10 10 10 10 10 9 9 10 10 11 11 11 11 11 11 11 10 9 10 11 13 13 14 14 14 13 13 12 7 5 5 5 4 4 5 5 6 6 5 5 4 4 4 5 5 6
11 11 11 12 13 14 13 12 11 10 11 11 11 10 10 10 10 10 10 10 10 10 11 11 11 11 11 11 10 10 9 9 10 11 11 11 11 11 11 11 10 10 10 12 13 14 14 14 14 14 12 7 6 6 5 5 5 5 5 5 5 5 4 3 3 4 4 6 7
11 11 11 12 13 14 14 13 12 12 12 12 11 10 9 9 8 9 9 10 10 11 11 11 12 12 11 10 9 9 9 9 10 11 11 11 12 12 11 11 10 10 10 12 13 14 14 14 14 14 13 8 7 6 6 5 5 6 5 5 5 4 4 3 3 3 4 5 8
11 11 11 12 13 13 14 14 14 13 12 11 11 10 10 9 9 8 9 9 10 10 11 11 12 11 10 10 9 9 9 9 10 10 11 11 12 13 13 11 10 10 10 12 13 13 14 14 15 15 13 8 7 6 6 5 6 6 6 5 5 4 4 3 3 3 3 4 7
12 11 12 12 13 13 13 14 14 13 12 11 11 10 9 8 8 8 8 9 10 10 10 10 11 11 10 10 9 9 10 10 11 11 11 12 12 12 13 11 10 10 10 11 12 13 14 14 15 16 13 8 7 6 6 6 6 7 7 6 5 5 4 4 3 3 3 4 4
Wind_Direction
236 233 230 229 228 228 228 230 229 231 233 237 238 237 235 234 235 233 228 221 219 216 211 203 190 174 163 160 156 151 146 141 134 132 137 151 162 167 167 161 161 174 193 208 206 204 201 198 189 177 163 160 176 186 190 187 187 194 204 212 218 224 229 234 236 236 236 238 238
241 239 235 233 231 232 232 232 231 231 231 234 237 237 236 234 234 231 227 221 221 219 214 206 189 172 163 160 154 147 141 137 137 141 153 171 178 179 176 169 173 186 201 210 208 205 201 196 185 175 170 175 185 190 190 182 182 197 212 221 225 228 232 236 238 240 242 243 245
245 244 242 239 236 234 233 234 234 233 233 233 233 234 235 235 232 226 220 214 211 209 203 195 183 171 164 162 157 149 145 148 154 162 172 183 187 186 182 177 182 193 203 207 204 202 198 192 180 171 172 185 189 188 182 166 171 200 224 235 241 243 245 245 246 249 251 251 253
244 245 245 243 240 237 234 233 235 235 235 233 232 231 231 232 230 225 218 210 207 204 199 189 181 174 169 166 164 160 157 160 166 173 180 186 188 187 185 182 187 194 200 201 197 194 190 185 175 173 181 190 186 182 174 153 148 183 229 247 251 251 251 253 258 261 258 251 251
240 241 241 242 240 239 238 237 236 236 235 233 230 227 224 225 226 224 219 212 210 208 203 191 185 181 177 173 169 167 166 168 172 176 181 185 186 185 184 184 188 192 193 193 190 187 185 182 180 182 185 184 177 174 168 153 160 183 210 226 227 232 241 255 269 272 265 255 253
239 239 239 240 240 241 241 241 239 238 236 232 228 225 221 215 215 216 218 217 217 217 215 207 199 194 188 183 176 173 172 174 178 180 180 180 179 178 179 186 190 189 187 186 184 183 181 181 184 185 180 168 162 161 161 157 178 190 195 193 188 188 201 216 241 259 265 266 265
238 239 239 239 239 240 242 244 244 242 240 236 232 228 224 216 214 215 218 219 218 221 227 232 227 220 211 204 192 183 179 179 182 184 184 183 182 181 181 184 185 184 182 180 179 179 180 181 183 180 174 165 153 156 166 181 189 189 185 180 175 178 188 196 202 224 253 265 266
235 236 238 239 240 242 243 245 245 244 242 240 237 234 230 223 219 218 218 219 217 215 215 225 236 237 234 231 222 208 195 187 187 188 189 189 188 187 185 182 179 177 177 176 175 175 177 181 181 176 170 163 158 163 171 180 178 176 176 176 170 173 184 192 190 194 210 234 247
221 227 231 235 237 240 241 243 243 241 241 241 240 239 236 230 225 222 221 222 217 208 199 204 214 220 226 233 238 235 224 208 199 196 196 194 189 186 182 176 173 172 173 175 175 174 174 179 182 176 168 163 163 165 166 166 164 166 170 172 166 169 177 188 187 189 194 204 219
204 206 212 220 226 230 234 237 239 239 240 242 243 243 241 237 233 229 228 226 216 205 197 197 197 198 203 210 219 225 231 233 221 212 207 203 188 179 173 168 168 168 169 171 171 171 172 180 184 179 172 167 165 163 162 160 160 162 166 167 164 166 171 177 187 196 198 196 203
215 203 200 205 210 214 217 223 230 233 236 241 244 245 244 243 241 239 237 232 224 216 208 197 190 191 193 197 197 196 192 186 176 172 176 191 182 174 169 168 169 168 167 165 163 165 169 182 185 183 179 175 168 163 160 160 158 158 158 157 157 160 165 177 192 207 212 209 211
260 232 212 203 199 198 201 207 216 222 227 234 239 242 243 244 243 244 243 238 233 226 215 198 191 190 191 192 189 182 172 162 158 157 160 168 171 171 171 171 170 168 165 162 161 162 168 180 184 185 184 184 178 170 163 160 154 150 147 150 154 158 167 186 198 209 219 224 226
287 273 254 231 212 204 204 210 216 220 224 229 234 237 239 240 239 237 235 232 231 226 215 198 192 191 191 191 185 177 169 164 162 163 165 169 170 171 173 173 171 167 164 161 161 163 170 180 183 185 187 191 190 180 168 159 150 145 144 148 154 161 174 192 196 204 214 225 234
294 287 279 268 252 238 232 235 237 236 236 237 237 236 235 233 226 220 218 220 220 214 202 191 191 191 190 186 180 175 171 168 166 166 168 169 170 172 173 172 170 166 162 159 160 166 173 181 185 187 188 191 193 186 174 160 149 145 146 149 156 164 176 192 195 197 205 220 238
298 293 290 285 271 258 252 250 251 250 249 248 245 240 232 222 211 204 203 205 203 195 186 181 184 184 180 175 172 170 169 168 168 168 168 169 170 171 170 168 165 163 159 156 161 169 177 183 188 191 191 191 191 187 178 164 152 148 148 150 156 163 175 189 193 196 202 219 244
306 301 297 290 274 262 255 251 252 252 251 251 249 243 231 217 203 194 191 190 185 180 177 177 176 172 168 165 165 165 165 166 168 168 169 169 170 170 168 165 164 162 160 159 164 173 181 185 192 194 193 189 188 185 179 167 155 149 149 152 156 164 175 189 196 202 209 223 244
315 306 296 285 271 262 256 252 252 250 249 249 248 242 231 217 204 196 190 184 178 175 175 174 170 166 163 162 163 163 164 165 168 170 171 171 170 169 168 168 167 166 165 166 171 176 182 186 192 193 191 185 183 180 175 166 155 151 152 155 162 170 180 192 201 208 217 228 243
320 311 297 281 269 262 258 255 254 251 249 247 244 238 229 217 210 204 197 187 179 176 173 171 168 164 162 160 163 165 165 164 168 171 172 171 170 169 170 171 170 169 169 171 173 176 178 179 181 181 179 176 176 175 171 164 156 153 155 161 170 180 189 198 205 213 221 231 241
320 312 301 286 273 265 261 258 256 254 252 249 243 235 227 219 212 208 204 199 190 181 173 168 167 164 161 157 159 162 164 163 166 168 169 169 169 169 170 170 170 170 171 171 171 171 170 169 168 167 167 168 172 173 172 166 159 159 163 171 183 193 202 209 214 219 224 230 238
318 312 304 293 282 273 267 262 260 258 258 256 245 234 226 219 215 211 208 207 198 186 176 169 168 166 162 155 154 157 160 160 162 164 165 166 168 170 171 169 168 169 169 168 165 163 163 162 162 163 165 168 173 176 176 173 170 172 177 184 194 205 216 225 229 231 231 231 234
317 311 304 296 287 279 273 267 264 262 260 255 242 232 224 219 217 215 212 207 198 188 181 177 174 171 166 160 158 159 159 158 161 163 165 166 170 171 171 170 168 168 167 166 163 161 161 162 164 167 170 174 178 181 183 184 185 187 191 198 208 219 228 236 240 241 240 238 236
318 312 305 297 289 282 276 271 267 262 255 248 238 229 223 219 218 217 215 207 197 191 188 186 181 177 173 169 166 163 160 157 161 163 165 167 171 172 171 170 168 167 167 167 164 163 163 166 170 174 177 181 186 190 193 195 196 198 202 211 220 228 235 241 247 251 251 248 243
318 313 307 298 290 283 278 273 266 259 252 247 238 229 223 220 219 216 213 207 204 199 195 190 187 183 179 174 169 164 160 158 161 163 165 168 169 171 171 171 170 169 170 170 167 166 167 171 177 181 185 189 194 198 200 202 201 202 206 215 225 233 242 249 255 256 254 250 245
317 313 308 301 292 285 279 272 265 258 252 246 239 231 225 222 219 214 210 210 209 205 199 192 188 183 178 173 170 166 164 164 166 167 169 172 171 172 173 175 175 175 174 174 173 172 172 174 180 187 192 196 199 202 204 205 203 203 207 218 234 245 252 254 253 250 246 242 239
316 312 307 301 293 286 278 270 263 257 252 247 239 232 226 223 218 214 212 212 212 207 200 190 184 179 175 174 174 173 172 172 172 173 175 178 178 178 178 181 182 181 180 180 181 180 180 180 183 188 195 201 204 206 207 208 206 207 211 222 238 249 255 254 249 242 237 235 233
316 313 309 302 294 286 278 269 263 258 254 249 240 232 227 224 220 217 216 216 214 208 200 189 183 179 177 175 176 178 180 181 180 179 179 181 183 185 185 187 187 186 185 186 187 187 188 190 192 193 197 203 206 208 210 212 210 210 212 217 230 240 247 249 244 238 234 231 228
318 315 311 304 296 286 277 269 265 261 256 249 240 232 227 223 220 220 220 220 215 209 201 193 186 181 177 174 178 183 188 190 188 186 184 183 185 188 191 193 192 190 189 190 191 193 196 200 202 203 203 205 208 211 212 213 210 210 211 215 224 232 239 240 237 233 230 227 221
318 316 313 308 299 288 278 270 266 261 255 248 240 232 225 220 220 221 222 222 216 209 204 200 192 184 177 177 185 189 191 192 191 190 190 189 189 190 192 196 196 195 194 193 195 199 203 208 212 215 216 216 214 212 211 208 206 206 210 216 226 233 236 235 231 228 224 219 213
316 315 313 309 300 291 282 271 263 258 253 248 241 233 224 218 219 221 221 220 215 211 207 202 194 187 185 189 193 194 193 193 192 192 193 194 194 195 195 197 198 198 198 196 199 202 207 213 219 224 228 229 225 216 209 206 205 208 214 222 229 232 232 230 227 224 219 212 208
315 314 312 307 301 293 284 271 262 256 251 246 238 229 224 221 221 221 220 218 215 212 207 198 192 191 193 195 194 193 195 196 195 194 195 197 198 199 199 198 198 199 200 200 202 205 210 216 221 227 233 235 230 220 207 203 205 210 217 226 229 228 225 221 216 212 209 205 203
314 313 310 306 301 294 285 274 263 254 247 239 231 227 226 226 224 222 219 217 216 213 208 199 196 197 197 196 194 194 195 195 196 197 199 200 201 202 201 200 198 199 201 203 206 209 213 217 222 227 232 237 233 223 205 198 200 205 214 224 225 222 218 213 209 205 202 200 201
312 311 309 306 301 295 287 277 265 252 240 232 228 228 228 229 227 224 222 219 216 213 209 203 201 201 200 198 197 197 196 194 196 198 201 202 202 201 201 200 200 201 204 206 210 213 216 219 223 227 231 235 232 221 201 194 196 202 211 220 221 217 212 206 203 200 198 198 199
311 311 310 306 302 297 291 281 266 250 237 230 228 229 230 231 230 228 224 220 216 212 209 206 204 203 201 199 199 198 197 196 197 199 201 202 202 200 199 200 203 206 208 210 213 216 219 221 223 226 229 231 228 214 193 190 192 201 210 217 215 210 205 200 197 195 195 196 198
313 312 311 307 303 299 293 284 268 252 239 233 231 231 231 232 232 229 225 220 216 213 211 209 207 206 204 201 199 199 198 198 197 198 198 199 199 199 200 202 206 209 211 213 215 217 220 222 224 225 226 227 223 207 189 191 192 199 206 210 208 203 198 193 191 191 192 194 195
313 313 312 309 305 301 296 287 273 256 244 239 236 234 232 232 232 230 226 221 216 214 214 213 212 210 207 204 202 200 199 199 198 197 196 195 197 200 204 207 210 212 213 215 217 219 221 223 223 224 224 224 216 201 190 191 193 196 200 202 199 194 189 187 187 187 189 190 192
312 312 310 308 306 303 297 289 277 262 251 245 241 237 234 232 232 230 226 220 216 215 214 213 212 210 207 205 204 203 202 199 198 196 195 194 196 201 206 210 212 214 215 216 218 220 222 223 223 223 223 220 206 193 190 189 191 193 194 194 190 186 182 181 181 183 185 189 190
309 309 308 306 304 302 298 291 280 268 258 251 246 240 236 233 232 229 225 219 216 215 214 212 211 209 207 204 203 203 202 199 196 195 195 195 197 201 206 211 213 215 216 217 218 220 222 223 223 222 221 214 198 189 187 185 187 189 189 188 184 180 177 178 179 181 184 190 192
307 306 305 303 301 299 296 291 281 271 262 256 250 245 239 234 231 227 223 217 216 215 214 212 212 211 209 205 204 203 201 198 195 194 195 197 198 200 204 210 213 215 216 217 219 221 223 224 223 222 219 207 192 186 185 183 184 186 186 184 178 174 173 177 181 184 188 193 193
304 303 301 299 298 296 294 289 281 272 265 259 255 249 242 236 231 226 221 216 216 215 215 214 214 213 210 205 204 202 200 199 197 197 197 199 199 200 201 206 212 214 215 216 219 222 224 224 226 224 218 203 189 184 183 182 184 184 183 180 174 171 171 179 184 187 191 197 195
301 300 298 296 294 293 291 287 280 273 266 260 255 250 244 238 233 227 221 218 217 217 217 217 216 213 208 203 203 202 201 201 201 201 201 201 201 200 200 204 210 212 213 214 217 220 223 224 227 224 217 197 185 180 180 181 182 183 183 180 176 173 174 181 186 188 191 199 197
298 297 296 294 292 290 288 285 280 274 266 258 252 248 245 240 236 228 221 218 217 217 217 218 216 211 206 202 201 201 202 203 204 204 204 203 202 201 201 203 207 210 211 212 215 218 222 224 228 223 213 189 181 178 179 179 181 183 184 183 180 177 175 176 182 187 191 196 200